Stations météo

Publicité
Biscarosse, France (7503): Température de l'air & dewpoint: 18.02.2020 21:00:00 - 24.02.2020 21:00:00 (CET)Biscarosse, France (7503): Température de l'air 5cm: 18.02.2020 21:00:00 - 24.02.2020 21:00:00 (CET)Biscarosse, France (7503): Température de l'air -20cm & Température de l'air -100cm: 18.02.2020 21:00:00 - 24.02.2020 21:00:00 (CET)Biscarosse, France (7503): Vitesse du vent & gusts: 18.02.2020 21:00:00 - 24.02.2020 21:00:00 (CET)Biscarosse, France (7503): Direction du vent: 18.02.2020 21:00:00 - 24.02.2020 21:00:00 (CET)Biscarosse, France (7503): reduced air pressure: 18.02.2020 21:00:00 - 24.02.2020 21:00:00 (CET)Biscarosse, France (7503): visibility: 18.02.2020 21:00:00 - 24.02.2020 21:00:00 (CET)Biscarosse, France (7503): Ensoleillement: 18.02.2020 21:00:00 - 24.02.2020 21:00:00 (CET)Biscarosse, France (7503): Quantités de précipitations: 18.02.2020 21:00:00 - 24.02.2020 21:00:00 (CET)
Date & Time tt [°C] td [°C] tt 5cm [°C] tt -20cm [°C] tt -100cm [°C] ff [km/h] ff [knt] fx [km/h] fx [knt] dd ppp [hPa] vv [km] sd [min] rr [mm]
24.02.2020 21:00:00 10,7 7,2 10,1 12,6 12,3 27 15 40 21 W 1023,3 13 0 0,0
24.02.2020 20:00:00 10,5 7,4 10,2 12,6 12,3 22 12 36 19 WNW 1023,4 12 0 0,0
24.02.2020 19:00:00 10,3 7,7 10,1 12,6 12,3 24 13 37 20 W 1023,6 13 0 0,0
24.02.2020 18:00:00 9,9 7,8 9,7 12,5 12,3 23 13 33 18 W 1023,5 11 0 0,0
24.02.2020 17:00:00 8,8 6,6 10,0 12,3 12,3 15 8 22 12 WSW 1023,9 12 10 0,0
24.02.2020 16:00:00 8,8 6,6 11,0 12,0 12,3 13 7 22 12 W 1024,2 13 26 0,0
24.02.2020 15:00:00 9,6 6,5 13,3 11,7 12,3 10 5 16 9 WNW 1024,7 11 17 0,0
24.02.2020 14:00:00 8,9 6,5 12,9 11,4 12,3 12 6 16 9 NW 1025,9 11 6 0,0
24.02.2020 13:00:00 8,7 6,7 10,0 11,2 12,3 5 3 11 6 ESE 1026,7 19 7 0,0
24.02.2020 12:00:00 7,1 6,2 8,3 11,1 12,3 4 2 14 8 SE 1027,4 11 0 0,0
24.02.2020 11:00:00 6,7 5,8 7,7 11,2 12,3 7 4 14 8 ESE 1028,2 3,5 0 0,0
24.02.2020 10:00:00 6,9 5,8 7,5 11,3 12,3 5 3 17 9 SE 1028,7 6 0 0,0
24.02.2020 09:00:00 7,3 5,8 7,6 11,3 12,3 6 3 13 7 SSE 1028,6 15 0 0,0
24.02.2020 08:00:00 7,7 5,8 7,7 11,4 12,3 5 3 11 6 ESE 1028,7 18 0 0,0
24.02.2020 07:00:00 8,0 6,3 7,5 11,5 12,3 4 2 9 5 ESE 1029,2 19 0 0,0
24.02.2020 06:00:00 8,1 6,7 7,8 11,7 12,3 6 3 10 5 SE 1029,6 19 0 0,0
24.02.2020 05:00:00 8,3 6,9 8,1 11,7 12,2 2 1 7 4 ESE 1029,8 18 0 0,0
24.02.2020 04:00:00 8,6 7,1 8,0 11,9 12,2 4 2 10 5 SE 1030,4 20 0 0,0
24.02.2020 03:00:00 8,9 7,0 8,1 11,9 12,2 6 4 14 8 W 1031,0 20 0 0,0
24.02.2020 02:00:00 9,2 7,3 8,2 12,1 12,2 7 4 16 9 W 1031,8 20 0 0,0
24.02.2020 01:00:00 9,3 7,4 8,7 12,3 12,2 8 4 16 9 WSW 1032,3 20 0 0,0
24.02.2020 00:00:00 9,1 7,9 7,4 12,5 12,2 9 5 17 9 WSW 1032,9 16 0 0,0
23.02.2020 23:00:00 8,8 8,0 5,6 12,7 12,2 9 5 16 9 W 1033,5 16 0 0,0
23.02.2020 22:00:00 8,2 7,4 5,0 12,9 12,2 10 5 15 8 WNW 1033,7 9 0 0,0
23.02.2020 21:00:00 6,7 5,5 4,9 13,2 12,2 10 6 13 7 W 1033,7 6 0 0,0
23.02.2020 20:00:00 8,2 6,8 6,3 13,4 12,2 4 2 10 5 S 1033,5 7 0 0,0
23.02.2020 19:00:00 9,5 7,4 7,4 13,5 12,2 8 4 14 8 WNW 1033,3 9 2 0,0
23.02.2020 18:00:00 10,6 7,8 10,5 13,4 12,2 7 4 16 9 WNW 1033,3 16 12 0,0
23.02.2020 17:00:00 11,8 7,7 14,1 13,1 12,2 10 5 15 8 WNW 1033,4 20 27 0,0
23.02.2020 16:00:00 12,4 7,9 15,6 12,7 12,2 10 6 19 10 W 1033,4 18 16 0,0
23.02.2020 15:00:00 13,1 8,6 16,6 12,2 12,2 9 5 17 9 WNW 1033,6 17 26 0,0
23.02.2020 14:00:00 12,9 8,6 17,9 11,7 12,2 10 6 18 10 W 1033,9 20 34 0,0
23.02.2020 13:00:00 13,5 8,1 18,4 11,2 12,2 11 6 16 9 WSW 1034,7 20 49 0,0
23.02.2020 12:00:00 13,6 8,6 15,3 10,9 12,2 12 6 18 10 SW 1034,9 19 38 0,0
23.02.2020 11:00:00 11,9 8,4 13,3 10,7 12,2 11 6 21 11 SW 1034,7 19 12 0,0
23.02.2020 10:00:00 10,7 8,8 9,9 10,7 12,2 6 3 15 8 S 1034,4 15 24 0,0
23.02.2020 09:00:00 9,2 8,1 8,6 10,8 12,2 6 4 10 6 SSE 1033,9 20 0 0,0
23.02.2020 08:00:00 8,9 8,0 8,6 10,8 12,2 5 3 8 4 SSE 1033,6 18 0 0,0
23.02.2020 07:00:00 8,9 8,0 8,1 10,9 12,2 4 2 8 5 ESE 1033,6 19 0 0,0
23.02.2020 06:00:00 8,8 7,9 8,1 11,0 12,2 5 3 8 4 SE 1033,3 19 0 0,0
23.02.2020 05:00:00 8,7 7,8 8,0 11,0 12,2 5 3 9 5 ESE 1033,3 20 0 0,0
23.02.2020 04:00:00 8,4 7,8 7,6 11,2 12,2 5 3 9 5 SE 1033,7 20 0 0,0
23.02.2020 03:00:00 8,2 7,8 7,0 11,4 12,2 6 4 11 6 SE 1034,0 20 0 0,0
23.02.2020 02:00:00 7,7 7,3 5,7 11,6 12,2 8 5 11 6 SE 1034,6 10 0 0,0
23.02.2020 01:00:00 7,2 6,8 5,0 11,9 12,2 9 5 11 6 SE 1035,2 8 0 0,0
23.02.2020 00:00:00 8,0 7,6 5,1 12,2 12,2 7 4 10 6 ESE 1035,4 10 0 0,0
22.02.2020 23:00:00 7,8 7,0 5,3 12,4 12,2 6 3 8 5 ESE 1035,5 10 0 0,0
22.02.2020 22:00:00 8,2 7,4 6,4 12,7 12,2 7 4 9 5 E 1035,6 8 0 0,0
22.02.2020 21:00:00 8,9 7,8 7,4 12,9 12,2 7 4 21 11 ENE 1035,6 4,6 0 0,0
22.02.2020 20:00:00 10,3 8,7 8,3 13,0 12,2 15 8 21 11 NNW 1035,2 6 0 0,0
22.02.2020 19:00:00 11,1 9,4 9,3 12,9 12,2 11 6 13 7 NW 1034,6 3,8 3 0,0
22.02.2020 18:00:00 12,4 9,6 12,1 12,8 12,2 11 6 18 10 NW 1034,1 13 45 0,0
22.02.2020 17:00:00 13,8 8,6 16,0 12,4 12,2 8 4 10 6 W 1033,4 12 60 0,0
22.02.2020 16:00:00 13,5 9,3 20,4 11,8 12,2 6 4 14 7 WNW 1033,5 18 60 0,0
22.02.2020 15:00:00 14,4 9,4 22,4 11,2 12,2 9 5 11 6 W 1033,8 15 60 0,0
22.02.2020 14:00:00 13,5 9,0 20,8 10,5 12,2 6 3 10 5 WNW 1034,3 13 60 0,0
22.02.2020 13:00:00 13,5 7,7 20,5 10,0 12,2 7 4 10 5 W 1034,7 16 60 0,0
22.02.2020 12:00:00 13,7 7,9 18,5 9,6 12,2 7 4 18 10 WSW 1034,9 9 60 0,0
22.02.2020 11:00:00 12,3 8,0 15,1 9,5 12,2 8 4 16 9 WSW 1034,7 7 60 0,0
22.02.2020 10:00:00 10,6 7,3 7,6 9,6 12,2 7 4 16 9 SSE 1033,4 20 60 0,0
22.02.2020 09:00:00 6,0 3,8 3,7 9,8 12,3 7 4 12 6 SE 1033,5 20 43 0,0
22.02.2020 08:00:00 4,7 3,8 2,6 10,0 12,2 9 5 11 6 SE 1032,5 20 0 0,0
22.02.2020 07:00:00 5,0 3,5 3,6 10,3 12,2 6 4 9 5 E 1032,1 19 0 0,0
22.02.2020 06:00:00 5,5 3,8 4,0 10,5 12,3 7 4 13 7 SE 1031,3 20 0 0,0
22.02.2020 05:00:00 5,8 3,3 4,4 10,7 12,2 8 4 15 8 SE 1031,1 20 0 0,0
22.02.2020 04:00:00 6,3 2,4 5,0 11,0 12,2 11 6 21 11 ESE 1031,1 20 0 0,0
22.02.2020 03:00:00 6,1 2,5 4,7 11,3 12,2 13 7 21 11 E 1031,1 20 0 0,0
22.02.2020 02:00:00 6,6 3,0 5,0 11,6 12,2 13 7 22 12 E 1031,8 20 0 0,0
22.02.2020 01:00:00 6,9 3,5 5,6 11,8 12,2 13 7 22 12 E 1031,8 20 0 0,0
22.02.2020 00:00:00 7,7 4,1 5,5 12,1 12,2 11 6 19 11 E 1032,3 20 0 0,0
21.02.2020 23:00:00 7,6 4,9 6,4 12,4 12,2 11 6 16 9 ENE 1032,6 20 0 0,0
21.02.2020 22:00:00 7,4 4,7 5,6 12,7 12,2 9 5 12 6 ENE 1032,0 20 0 0,0
21.02.2020 21:00:00 7,4 4,4 5,6 12,9 12,2 7 4 12 6 NE 1032,2 20 0 0,0
21.02.2020 20:00:00 8,0 4,6 6,1 13,1 12,1 7 4 13 7 NE 1032,2 16 0 0,0
21.02.2020 19:00:00 9,6 4,8 8,3 13,2 12,2 6 4 19 10 NNE 1031,7 10 2 0,0
21.02.2020 18:00:00 11,1 5,0 10,7 13,2 12,2 14 8 20 11 N 1031,4 9 47 0,0
21.02.2020 17:00:00 12,2 4,4 13,5 13,0 12,2 17 9 23 12 N 1031,8 14 60 0,0
21.02.2020 16:00:00 12,9 4,8 18,6 12,6 12,2 17 9 22 12 NNW 1032,2 20 60 0,0
21.02.2020 15:00:00 13,0 4,2 18,9 12,2 12,2 15 8 18 10 NNW 1032,5 17 60 0,0
21.02.2020 14:00:00 12,6 4,0 19,1 11,7 12,2 13 7 17 9 NNW 1032,9 20 60 0,0
21.02.2020 13:00:00 13,3 3,4 18,9 11,3 12,1 5 3 17 9 NNE 1033,5 20 60 0,0
21.02.2020 12:00:00 12,9 3,5 16,2 11,1 12,2 5 3 16 8 NNE 1033,8 20 60 0,0
21.02.2020 11:00:00 11,8 5,4 14,4 11,1 12,2 10 5 18 10 E 1033,6 20 60 0,0
21.02.2020 10:00:00 10,4 5,8 9,2 11,2 12,1 12 7 19 10 ENE 1033,7 20 60 0,0
21.02.2020 09:00:00 8,9 6,2 7,4 11,3 12,2 9 5 18 10 E 1033,1 20 30 0,0
21.02.2020 08:00:00 8,4 6,0 7,5 11,4 12,2 9 5 15 8 ENE 1032,6 20 0 0,0
21.02.2020 07:00:00 8,5 6,6 7,6 11,5 12,1 6 4 9 5 NE 1032,0 20 0 0,0
21.02.2020 06:00:00 8,7 7,0 8,1 11,6 12,1 4 2 9 5 NNE 1031,7 20 0 0,0
21.02.2020 05:00:00 9,2 8,0 8,6 11,7 12,1 4 2 6 3 NE 1031,3 20 0 0,0
21.02.2020 04:00:00 9,3 7,9 8,7 11,8 12,1 2 1 9 5 NE 1031,5 20 0 0,0
21.02.2020 03:00:00 9,6 8,5 9,2 11,9 12,1 6 4 18 10 NNE 1031,8 15 0 0,0
21.02.2020 02:00:00 9,9 8,8 9,4 12,0 12,1 6 4 18 10 NE 1031,5 20 0 0,0
21.02.2020 01:00:00 10,6 9,5 10,1 12,0 12,1 8 5 24 13 NNE 1031,4 3,6 0 0,4
21.02.2020 00:00:00 11,6 9,8 11,4 12,1 12,1 20 11 27 15 W 1030,8 8 0 0,0
20.02.2020 23:00:00 12,1 10,2 11,5 12,2 12,1 19 10 23 12 WSW 1030,4 10 0 0,0
20.02.2020 22:00:00 11,8 9,7 10,4 12,3 12,1 15 8 18 10 W 1029,9 9 0 0,0
20.02.2020 21:00:00 11,5 9,6 10,1 12,5 12,2 13 7 24 13 WNW 1028,9 10 0 0,0
20.02.2020 20:00:00 11,5 9,1 10,1 12,6 12,2 18 10 29 16 WNW 1028,7 13 0 0,0
20.02.2020 19:00:00 11,6 9,2 10,3 12,5 12,2 19 11 23 13 WNW 1028,0 12 0 0,0
20.02.2020 18:00:00 12,2 9,9 11,7 12,4 12,2 13 7 16 9 WNW 1026,9 10 49 0,0
20.02.2020 17:00:00 13,4 10,0 14,6 12,0 12,2 14 7 18 10 WNW 1026,3 17 60 0,0
20.02.2020 16:00:00 13,8 10,0 20,2 11,5 12,2 8 4 14 8 WNW 1025,7 19 60 0,0
20.02.2020 15:00:00 13,2 9,3 20,6 10,9 12,2 11 6 14 8 W 1025,8 20 60 0,0
20.02.2020 14:00:00 13,4 8,9 20,2 10,3 12,2 9 5 19 10 WSW 1025,0 13 60 0,0
20.02.2020 13:00:00 14,3 7,1 20,5 9,7 12,2 15 8 21 11 SW 1024,9 14 60 0,0
20.02.2020 12:00:00 14,5 7,8 17,1 9,4 12,2 9 5 12 7 SW 1024,7 9 60 0,0
20.02.2020 11:00:00 10,6 6,3 11,8 9,4 12,2 6 3 16 9 SSE 1024,6 20 60 0,0
20.02.2020 10:00:00 7,9 5,2 6,9 9,5 12,2 9 5 22 12 ESE 1024,4 20 60 0,0
20.02.2020 09:00:00 5,8 4,1 3,0 9,7 12,2 14 8 22 12 E 1024,0 20 40 0,0
20.02.2020 08:00:00 4,2 3,5 2,4 9,9 12,2 14 8 21 12 E 1023,8 20 0 0,0
20.02.2020 07:00:00 4,6 3,9 3,0 10,2 12,2 13 7 21 11 E 1023,5 20 0 0,0
20.02.2020 06:00:00 5,1 4,4 3,7 10,4 12,2 11 6 22 12 E 1023,7 20 0 0,0
20.02.2020 05:00:00 5,5 4,6 4,3 10,7 12,2 13 7 22 12 E 1023,9 20 0 0,0
20.02.2020 04:00:00 6,2 5,5 5,0 10,9 12,2 13 7 21 11 ESE 1024,3 20 0 0,0
20.02.2020 03:00:00 6,4 5,7 5,3 11,1 12,2 12 7 18 10 E 1025,2 20 0 0,0
20.02.2020 02:00:00 6,7 6,1 5,4 11,4 12,2 10 6 16 9 E 1026,0 20 0 0,0
20.02.2020 01:00:00 6,8 6,1 5,5 11,7 12,2 8 5 12 6 ESE 1026,6 20 0 0,0
20.02.2020 00:00:00 6,9 6,2 5,3 11,9 12,2 8 4 10 5 ESE 1027,3 19 0 0,0
19.02.2020 23:00:00 8,1 6,9 6,2 12,2 12,2 5 3 8 5 ESE 1027,9 20 0 0,0
19.02.2020 22:00:00 8,2 7,1 6,6 12,5 12,2 6 3 8 4 ESE 1028,4 12 0 0,0
19.02.2020 21:00:00 8,6 7,1 7,3 12,6 12,2 4 2 7 4 ESE 1029,0 8 0 0,0
19.02.2020 20:00:00 9,0 7,3 7,6 12,8 12,2 2 1 8 4 SE 1029,8 9 0 0,0
19.02.2020 19:00:00 10,2 6,9 8,6 12,8 12,2 7 4 13 7 WSW 1030,2 9 15 0,0
19.02.2020 18:00:00 11,6 8,1 11,5 12,7 12,2 12 6 19 10 W 1030,1 13 50 0,0
19.02.2020 17:00:00 13,5 7,7 15,1 12,4 12,2 15 8 20 11 WSW 1030,5 19 60 0,0
19.02.2020 16:00:00 14,0 7,7 19,0 12,0 12,2 18 10 23 12 WSW 1031,0 17 60 0,0
19.02.2020 15:00:00 14,3 8,0 18,3 11,6 12,2 20 11 24 13 W 1031,6 20 54 0,0
19.02.2020 14:00:00 13,7 8,3 16,4 11,1 12,2 20 11 25 13 WSW 1032,5 16 32 0,0
19.02.2020 13:00:00 13,0 8,9 13,4 10,8 12,2 21 11 32 17 WSW 1033,2 14 1 0,0
19.02.2020 12:00:00 12,7 8,2 14,9 10,5 12,2 18 10 30 16 WSW 1033,6 16 44 0,0
19.02.2020 11:00:00 13,4 8,7 16,5 10,3 12,2 21 11 26 14 WSW 1034,0 15 60 0,0
19.02.2020 10:00:00 12,3 8,2 11,4 10,3 12,2 19 10 24 13 WSW 1033,9 15 52 0,0
19.02.2020 09:00:00 11,2 7,7 9,5 10,4 12,2 21 11 26 14 W 1033,6 14 34 0,0
19.02.2020 08:00:00 10,7 7,9 9,4 10,4 12,3 23 13 32 18 W 1033,1 14 0 0,0
19.02.2020 07:00:00 10,9 6,8 9,7 10,5 12,2 26 14 35 19 WNW 1033,1 16 0 0,0
19.02.2020 06:00:00 10,8 7,3 9,2 10,7 12,3 28 15 37 20 W 1032,9 19 0 0,0
19.02.2020 05:00:00 10,6 7,5 8,4 10,8 12,3 32 17 45 24 W 1032,6 15 0 0,0
19.02.2020 04:00:00 10,8 6,5 8,5 10,9 12,2 29 16 40 22 W 1032,6 15 0 0,0
19.02.2020 03:00:00 10,4 8,0 9,0 11,1 12,3 26 14 36 19 W 1032,8 7 0 0,0
19.02.2020 02:00:00 10,6 7,3 8,7 11,2 12,3 29 15 35 19 W 1033,3 11 0 0,0
19.02.2020 01:00:00 9,9 7,1 8,8 11,4 12,3 24 13 43 23 WSW 1033,3 13 0 0,0
19.02.2020 00:00:00 10,6 7,1 8,4 11,5 12,3 29 15 37 20 W 1034,0 14 0 0,0
18.02.2020 23:00:00 10,5 7,2 8,1 11,7 12,3 27 14 32 17 W 1034,1 12 0 0,0
18.02.2020 22:00:00 10,2 7,1 8,0 12,0 12,3 28 15 35 19 W 1034,1 14 0 0,0
18.02.2020 21:00:00 9,8 7,2 6,4 12,2 12,3 23 12 27 15 W 1034,1 15 0 0,0

tt = Température de l'air
td = dewpoint
tt 5cm = Température de l'air 5cm
tt -20cm = Température de l'air -20cm
tt -100cm = Température de l'air -100cm
ff = Vitesse du vent
fx = gusts
dd = Direction du vent
ppp = reduced air pressure
vv = visibility
sd = Ensoleillement
rr = Quantités de précipitations

stations d'obs. à proximité